WXM80 ListenWXM80 Stop

You find our weather info also at:

UK Metoffice

WeatherCloud

Weather Underground

Northeastern Weather Network

AWEKAS

Citizen Weather Observer Program (CWOP)

HAMweather, WeatherForYou, PWS Weather


Weather Underground History page Text

Daily Summary for March 27, 2017 Units:  English    Metric   Both
« Previous Day
Next Day »
Daily Weekly Monthly Yearly Custom
  High: Low: Average:
Temperature: 47.2 °F 37.7 °F 40.8 °F
Dew Point: 46.7 °F 36.9 °F 40.1 °F
Humidity: 98 % 95 % 97 %
Wind Speed: 8.6 mph 0.0 mph 2.7 mph
Wind Gust: 11.5 mph - -
Wind:- - ENE
Pressure: 30.30 in 29.96 in -
Precipitation: 0.00 in    
Historical Graphs
 
 
Tabular Data for March 27, 2017
Time Temperature Dew Point Pressure Wind Wind Speed Wind Gust Humidity Rainfall Rate (Hourly)
00:02 37.9 °F 36.9 °F 30.30 in ENE 6.2 mph 8.1 mph 96 % 0.00 in
00:07 37.9 °F 36.9 °F 30.30 in ENE 6.0 mph 9.0 mph 96 % 0.00 in
00:12 37.9 °F 36.9 °F 30.30 in ENE 5.6 mph 10.4 mph 96 % 0.00 in
00:17 37.9 °F 36.9 °F 30.30 in East 5.6 mph 8.1 mph 96 % 0.00 in
00:22 37.9 °F 36.9 °F 30.30 in ENE 6.0 mph 9.2 mph 96 % 0.00 in
00:27 37.9 °F 36.9 °F 30.29 in ENE 6.0 mph 10.0 mph 96 % 0.00 in
00:32 37.9 °F 36.9 °F 30.29 in East 6.4 mph 8.1 mph 96 % 0.00 in
00:38 37.9 °F 37.1 °F 30.28 in ENE 6.3 mph 9.2 mph 97 % 0.00 in
00:43 37.9 °F 37.1 °F 30.28 in ENE 6.4 mph 8.1 mph 97 % 0.00 in
00:48 37.9 °F 37.1 °F 30.28 in ENE 6.0 mph 9.2 mph 97 % 0.00 in
00:53 37.8 °F 37.0 °F 30.28 in ENE 7.0 mph 10.4 mph 97 % 0.00 in
00:58 37.8 °F 37.0 °F 30.28 in ENE 6.2 mph 8.1 mph 97 % 0.00 in
01:03 37.8 °F 37.0 °F 30.27 in ENE 8.6 mph 10.4 mph 97 % 0.00 in
01:08 37.8 °F 37.0 °F 30.27 in East 8.3 mph 10.4 mph 97 % 0.00 in
01:13 37.7 °F 36.9 °F 30.26 in East 6.0 mph 8.1 mph 97 % 0.00 in
01:18 37.7 °F 36.9 °F 30.26 in East 6.5 mph 9.2 mph 97 % 0.00 in
01:28 37.7 °F 36.9 °F 30.26 in ENE 5.7 mph 9.2 mph 97 % 0.00 in
01:33 37.7 °F 36.9 °F 30.25 in ENE 8.1 mph 10.4 mph 97 % 0.00 in
01:38 37.7 °F 36.9 °F 30.25 in ENE 7.0 mph 10.4 mph 97 % 0.00 in
01:43 37.7 °F 36.9 °F 30.25 in ENE 7.1 mph 9.2 mph 97 % 0.00 in
01:48 37.7 °F 36.9 °F 30.24 in East 6.5 mph 9.2 mph 97 % 0.00 in
01:53 37.8 °F 37.0 °F 30.24 in ENE 6.1 mph 6.9 mph 97 % 0.00 in
01:58 37.8 °F 37.0 °F 30.24 in ENE 7.2 mph 10.4 mph 97 % 0.00 in
02:03 37.8 °F 37.0 °F 30.24 in East 6.7 mph 9.2 mph 97 % 0.00 in
02:08 37.8 °F 37.0 °F 30.24 in ENE 6.8 mph 8.1 mph 97 % 0.00 in
02:13 37.8 °F 37.0 °F 30.24 in ENE 6.4 mph 8.1 mph 97 % 0.00 in
02:19 37.8 °F 37.0 °F 30.23 in East 5.4 mph 9.2 mph 97 % 0.00 in
02:24 37.8 °F 37.0 °F 30.23 in ENE 6.4 mph 9.2 mph 97 % 0.00 in
02:29 37.8 °F 37.0 °F 30.23 in East 5.3 mph 8.1 mph 97 % 0.00 in
02:34 37.8 °F 37.0 °F 30.23 in ENE 5.3 mph 6.9 mph 97 % 0.00 in
02:39 37.8 °F 37.0 °F 30.22 in ENE 6.2 mph 8.1 mph 97 % 0.00 in
02:44 37.8 °F 37.0 °F 30.22 in ENE 6.2 mph 9.2 mph 97 % 0.00 in
02:49 37.8 °F 37.0 °F 30.22 in ENE 6.6 mph 9.2 mph 97 % 0.00 in
02:54 37.8 °F 37.0 °F 30.22 in ENE 6.5 mph 9.2 mph 97 % 0.00 in
02:59 37.8 °F 37.0 °F 30.21 in ENE 7.6 mph 10.4 mph 97 % 0.00 in
03:04 37.8 °F 37.0 °F 30.21 in East 5.9 mph 7.0 mph 97 % 0.00 in
03:09 37.9 °F 37.1 °F 30.20 in ENE 6.5 mph 8.1 mph 97 % 0.00 in
03:14 37.9 °F 37.1 °F 30.20 in ENE 6.1 mph 8.1 mph 97 % 0.00 in
03:19 37.9 °F 37.1 °F 30.19 in East 5.4 mph 8.1 mph 97 % 0.00 in
03:24 37.9 °F 37.1 °F 30.19 in ENE 5.5 mph 7.0 mph 97 % 0.00 in
03:29 37.9 °F 37.1 °F 30.19 in East 5.5 mph 8.1 mph 97 % 0.00 in
03:34 38.0 °F 37.2 °F 30.18 in East 4.7 mph 8.1 mph 97 % 0.00 in
03:39 38.0 °F 37.2 °F 30.18 in ENE 6.1 mph 8.1 mph 97 % 0.00 in
03:44 38.0 °F 37.2 °F 30.18 in ENE 4.7 mph 6.9 mph 97 % 0.00 in
03:49 38.0 °F 37.2 °F 30.18 in East 5.7 mph 9.2 mph 97 % 0.00 in
03:54 38.0 °F 37.2 °F 30.18 in NE 5.5 mph 8.1 mph 97 % 0.00 in
03:59 38.0 °F 37.2 °F 30.17 in ENE 6.5 mph 9.2 mph 97 % 0.00 in
04:04 38.0 °F 37.2 °F 30.17 in ENE 5.0 mph 6.9 mph 97 % 0.00 in
04:09 38.0 °F 37.2 °F 30.17 in ENE 5.4 mph 7.0 mph 97 % 0.00 in
04:14 38.0 °F 37.2 °F 30.17 in East 5.7 mph 6.0 mph 97 % 0.00 in
04:20 38.0 °F 37.2 °F 30.17 in East 5.5 mph 8.1 mph 97 % 0.00 in
04:25 38.0 °F 37.2 °F 30.17 in ENE 5.3 mph 9.2 mph 97 % 0.00 in
04:30 38.0 °F 37.2 °F 30.16 in ENE 5.0 mph 9.2 mph 97 % 0.00 in
04:35 38.1 °F 37.3 °F 30.17 in ENE 7.2 mph 11.5 mph 97 % 0.00 in
04:40 38.1 °F 37.3 °F 30.17 in East 6.1 mph 9.2 mph 97 % 0.00 in
04:45 38.1 °F 37.3 °F 30.16 in ENE 7.2 mph 9.2 mph 97 % 0.00 in
04:50 38.1 °F 37.3 °F 30.16 in ENE 5.0 mph 6.9 mph 97 % 0.00 in
04:55 38.1 °F 37.3 °F 30.16 in ENE 4.5 mph 8.1 mph 97 % 0.00 in
05:00 38.1 °F 37.3 °F 30.16 in ENE 5.4 mph 6.9 mph 97 % 0.00 in
05:05 38.1 °F 37.3 °F 30.16 in East 5.5 mph 7.0 mph 97 % 0.00 in
05:10 38.2 °F 37.4 °F 30.15 in ENE 5.5 mph 8.1 mph 97 % 0.00 in
05:15 38.2 °F 37.4 °F 30.15 in ENE 5.3 mph 9.2 mph 97 % 0.00 in
05:20 38.2 °F 37.4 °F 30.15 in ENE 5.1 mph 8.1 mph 97 % 0.00 in
05:25 38.2 °F 37.4 °F 30.15 in ENE 5.0 mph 6.9 mph 97 % 0.00 in
05:30 38.2 °F 37.4 °F 30.16 in ENE 6.1 mph 10.4 mph 97 % 0.00 in
05:35 38.2 °F 37.4 °F 30.15 in ENE 5.4 mph 8.0 mph 97 % 0.00 in
05:40 38.2 °F 37.4 °F 30.15 in ENE 5.1 mph 9.2 mph 97 % 0.00 in
05:45 38.2 °F 37.4 °F 30.15 in East 4.8 mph 8.1 mph 97 % 0.00 in
05:50 38.2 °F 37.4 °F 30.14 in ENE 5.7 mph 11.5 mph 97 % 0.00 in
05:55 38.2 °F 37.4 °F 30.14 in ENE 6.8 mph 8.1 mph 97 % 0.00 in
06:00 38.2 °F 37.7 °F 30.14 in ENE 4.6 mph 9.0 mph 98 % 0.00 in
06:05 38.2 °F 37.7 °F 30.14 in ENE 4.8 mph 5.8 mph 98 % 0.00 in
06:10 38.2 °F 37.7 °F 30.13 in ENE 6.2 mph 8.1 mph 98 % 0.00 in
06:16 38.2 °F 37.7 °F 30.13 in ENE 3.5 mph 9.2 mph 98 % 0.00 in
06:21 38.2 °F 37.7 °F 30.12 in East 5.7 mph 8.1 mph 98 % 0.00 in
06:26 38.2 °F 37.7 °F 30.12 in East 5.7 mph 8.1 mph 98 % 0.00 in
06:31 38.2 °F 37.7 °F 30.12 in ENE 5.5 mph 6.9 mph 98 % 0.00 in
06:32 38.2 °F 37.7 °F 30.12 in East 5.4 mph 8.0 mph 98 % 0.00 in
06:37 38.3 °F 37.8 °F 30.12 in East 5.1 mph 6.9 mph 98 % 0.00 in
06:42 38.3 °F 37.8 °F 30.12 in East 5.7 mph 6.9 mph 98 % 0.00 in
06:47 38.3 °F 37.8 °F 30.12 in ENE 4.9 mph 8.1 mph 98 % 0.00 in
06:52 38.3 °F 37.8 °F 30.12 in East 5.1 mph 6.9 mph 98 % 0.00 in
06:57 38.4 °F 37.9 °F 30.11 in ENE 4.7 mph 8.1 mph 98 % 0.00 in
07:02 38.3 °F 37.8 °F 30.11 in East 6.0 mph 8.0 mph 98 % 0.00 in
07:07 38.3 °F 37.8 °F 30.11 in East 5.0 mph 9.0 mph 98 % 0.00 in
07:12 38.3 °F 37.8 °F 30.11 in ENE 6.0 mph 10.0 mph 98 % 0.00 in
07:17 38.4 °F 37.9 °F 30.11 in ENE 5.0 mph 8.0 mph 98 % 0.00 in
07:22 38.4 °F 37.9 °F 30.11 in East 5.6 mph 8.0 mph 98 % 0.00 in
07:27 38.4 °F 37.9 °F 30.11 in East 5.0 mph 7.0 mph 98 % 0.00 in
07:32 38.5 °F 38.0 °F 30.11 in East 3.0 mph 8.0 mph 98 % 0.00 in
07:37 38.5 °F 38.0 °F 30.10 in ENE 3.0 mph 7.0 mph 98 % 0.00 in
07:42 38.6 °F 38.0 °F 30.10 in East 6.0 mph 6.0 mph 98 % 0.00 in
07:47 38.6 °F 38.1 °F 30.10 in East 6.0 mph 7.0 mph 98 % 0.00 in
07:52 38.6 °F 38.1 °F 30.10 in East 5.1 mph 5.8 mph 98 % 0.00 in
07:57 38.7 °F 38.2 °F 30.10 in East 4.4 mph 4.6 mph 98 % 0.00 in
08:03 38.7 °F 38.2 °F 30.10 in ENE 3.6 mph 4.6 mph 98 % 0.00 in
08:08 38.8 °F 38.3 °F 30.10 in ENE 3.0 mph 6.9 mph 98 % 0.00 in
08:13 38.8 °F 38.3 °F 30.10 in ENE 3.1 mph 4.0 mph 98 % 0.00 in
08:18 38.8 °F 38.3 °F 30.09 in East 4.0 mph 5.8 mph 98 % 0.00 in
08:23 38.8 °F 38.3 °F 30.09 in ENE 3.6 mph 5.0 mph 98 % 0.00 in
08:28 38.9 °F 38.4 °F 30.08 in East 3.5 mph 5.0 mph 98 % 0.00 in
08:33 38.9 °F 38.4 °F 30.08 in East 3.0 mph 5.8 mph 98 % 0.00 in
08:38 38.9 °F 38.4 °F 30.08 in ENE 3.7 mph 5.0 mph 98 % 0.00 in
08:43 39.0 °F 38.5 °F 30.08 in East 2.3 mph 3.5 mph 98 % 0.00 in
08:48 39.0 °F 38.5 °F 30.08 in East 2.0 mph 3.5 mph 98 % 0.00 in
08:53 39.0 °F 38.5 °F 30.07 in East 2.3 mph 3.5 mph 98 % 0.00 in
08:58 39.2 °F 38.7 °F 30.07 in East 4.0 mph 5.8 mph 98 % 0.00 in
09:03 39.3 °F 38.8 °F 30.07 in East 3.3 mph 5.0 mph 98 % 0.00 in
09:08 39.3 °F 38.8 °F 30.07 in East 2.2 mph 4.6 mph 98 % 0.00 in
09:13 39.3 °F 38.8 °F 30.07 in East 3.0 mph 4.6 mph 98 % 0.00 in
09:18 39.4 °F 38.9 °F 30.07 in East 2.0 mph 3.5 mph 98 % 0.00 in
09:23 39.4 °F 38.9 °F 30.07 in ENE 1.8 mph 4.6 mph 98 % 0.00 in
09:28 39.5 °F 39.0 °F 30.07 in ENE 1.4 mph 3.0 mph 98 % 0.00 in
09:33 39.5 °F 39.0 °F 30.07 in ENE 0.6 mph 2.0 mph 98 % 0.00 in
09:38 39.5 °F 39.0 °F 30.08 in NE 0.4 mph 2.0 mph 98 % 0.00 in
09:43 39.5 °F 39.0 °F 30.09 in WNW 2.6 mph 3.5 mph 98 % 0.00 in
09:48 39.5 °F 39.0 °F 30.08 in WNW 0.6 mph 2.3 mph 98 % 0.00 in
09:53 39.6 °F 39.1 °F 30.07 in NNE 3.3 mph 6.0 mph 98 % 0.00 in
09:58 39.6 °F 39.1 °F 30.07 in NE 1.3 mph 3.5 mph 98 % 0.00 in
10:03 39.6 °F 39.1 °F 30.07 in ENE 2.4 mph 3.5 mph 98 % 0.00 in
10:08 39.6 °F 39.1 °F 30.07 in NNE 1.3 mph 1.3 mph 98 % 0.00 in
10:14 39.6 °F 39.1 °F 30.08 in North 1.5 mph 2.3 mph 98 % 0.00 in
10:19 39.6 °F 39.1 °F 30.07 in NNE 0.7 mph 3.5 mph 98 % 0.00 in
10:24 39.6 °F 39.1 °F 30.07 in ENE 0.4 mph 3.5 mph 98 % 0.00 in
10:29 39.5 °F 39.0 °F 30.07 in ENE 1.1 mph 3.5 mph 98 % 0.00 in
10:34 39.4 °F 38.9 °F 30.07 in ENE 1.2 mph 2.3 mph 98 % 0.00 in
10:39 39.4 °F 38.9 °F 30.06 in ENE 1.7 mph 3.5 mph 98 % 0.00 in
10:44 39.3 °F 38.8 °F 30.06 in ENE 1.6 mph 2.3 mph 98 % 0.01 in
10:49 39.4 °F 38.9 °F 30.06 in ENE 1.2 mph 2.3 mph 98 % 0.01 in
10:54 39.4 °F 38.9 °F 30.06 in ENE 0.2 mph 2.3 mph 98 % 0.01 in
10:59 39.4 °F 38.9 °F 30.06 in ENE 1.0 mph 3.0 mph 98 % 0.01 in
11:04 39.5 °F 39.0 °F 30.06 in ENE 0.1 mph   98 % 0.01 in
11:09 39.5 °F 39.0 °F 30.05 in ENE 0.1 mph 2.3 mph 98 % 0.01 in
11:14 39.5 °F 39.0 °F 30.05 in ENE 0.5 mph 2.0 mph 98 % 0.01 in
11:19 39.6 °F 39.1 °F 30.05 in ENE 0.2 mph 2.3 mph 98 % 0.02 in
11:24 39.7 °F 39.2 °F 30.05 in ENE 0.5 mph 1.2 mph 98 % 0.02 in
11:29 39.7 °F 39.2 °F 30.05 in ENE 0.4 mph 2.3 mph 98 % 0.02 in
11:34 39.7 °F 39.2 °F 30.04 in ENE 0.7 mph 2.3 mph 98 % 0.02 in
11:39 39.7 °F 39.2 °F 30.03 in ENE 0.7 mph 3.5 mph 98 % 0.02 in
11:44 39.7 °F 39.2 °F 30.04 in Calm   1.2 mph 98 % 0.01 in
11:49 39.8 °F 39.3 °F 30.04 in ENE 0.4 mph 3.5 mph 98 % 0.01 in
11:54 39.8 °F 39.3 °F 30.03 in ENE 1.1 mph 3.0 mph 98 % 0.01 in
11:59 39.8 °F 39.3 °F 30.03 in ENE 0.7 mph 2.3 mph 98 % 0.01 in
12:04 39.9 °F 39.4 °F 30.03 in ENE 2.4 mph 3.5 mph 98 % 0.01 in
12:09 40.0 °F 39.5 °F 30.03 in ENE 0.9 mph 2.3 mph 98 % 0.01 in
12:14 40.0 °F 39.5 °F 30.03 in ENE 0.8 mph 3.5 mph 98 % 0.01 in
12:19 40.1 °F 39.6 °F 30.03 in ENE 0.2 mph 3.5 mph 98 % 0.00 in
12:24 40.2 °F 39.7 °F 30.03 in ENE 0.8 mph 3.5 mph 98 % 0.00 in
12:29 40.2 °F 39.7 °F 30.02 in ENE 0.9 mph 3.5 mph 98 % 0.00 in
12:34 40.5 °F 40.0 °F 30.03 in ENE 0.3 mph 2.3 mph 98 % 0.00 in
12:39 40.6 °F 40.1 °F 30.02 in ENE 1.4 mph 2.3 mph 98 % 0.00 in
12:40 40.7 °F 40.2 °F 30.02 in ENE 0.9 mph 2.3 mph 98 % 0.00 in
12:46 40.8 °F 40.3 °F 30.02 in ENE 1.1 mph 3.5 mph 98 % 0.00 in
12:51 41.0 °F 40.5 °F 30.02 in ENE 2.0 mph 4.6 mph 98 % 0.00 in
12:56 41.4 °F 40.9 °F 30.02 in ENE 2.3 mph 3.5 mph 98 % 0.00 in
13:01 41.8 °F 41.3 °F 30.02 in ENE 1.7 mph 3.5 mph 98 % 0.00 in
13:06 42.2 °F 41.7 °F 30.02 in ENE 1.7 mph 3.5 mph 98 % 0.00 in
13:11 42.5 °F 42.0 °F 30.02 in ENE 2.6 mph 3.5 mph 98 % 0.00 in
13:16 42.6 °F 42.1 °F 30.02 in NE 2.9 mph 3.5 mph 98 % 0.00 in
13:21 42.7 °F 42.2 °F 30.02 in NE 1.6 mph 3.5 mph 98 % 0.00 in
13:26 42.9 °F 42.4 °F 30.02 in ENE 3.4 mph 6.9 mph 98 % 0.00 in
13:31 43.5 °F 43.0 °F 30.01 in NNE 3.9 mph 4.0 mph 98 % 0.00 in
13:37 43.9 °F 43.4 °F 30.01 in NE 2.5 mph 3.5 mph 98 % 0.00 in
13:42 44.1 °F 43.6 °F 30.01 in NE 2.6 mph 4.6 mph 98 % 0.00 in
13:47 44.1 °F 43.6 °F 30.01 in NE 2.0 mph 3.5 mph 98 % 0.00 in
13:52 44.0 °F 43.5 °F 30.01 in NE 2.4 mph 4.0 mph 98 % 0.00 in
13:57 43.3 °F 42.8 °F 30.01 in ENE 4.7 mph 6.9 mph 98 % 0.00 in
14:02 42.6 °F 42.1 °F 30.00 in ENE 2.1 mph 3.5 mph 98 % 0.00 in
14:07 42.6 °F 42.1 °F 30.00 in East 2.6 mph 3.5 mph 98 % 0.00 in
14:12 42.5 °F 42.0 °F 30.00 in ENE 2.8 mph 4.6 mph 98 % 0.00 in
14:17 42.4 °F 41.9 °F 30.00 in NE 1.2 mph 3.5 mph 98 % 0.00 in
14:22 42.5 °F 42.0 °F 30.00 in ENE 1.5 mph 3.5 mph 98 % 0.00 in
14:27 42.6 °F 42.1 °F 30.01 in ENE 0.5 mph 2.3 mph 98 % 0.00 in
14:33 42.6 °F 42.1 °F 30.00 in NNE 1.8 mph 5.0 mph 98 % 0.00 in
14:38 42.7 °F 42.2 °F 30.01 in NNE 0.5 mph 2.3 mph 98 % 0.00 in
14:43 42.7 °F 42.2 °F 30.01 in NNE 0.8 mph 2.3 mph 98 % 0.00 in
14:48 42.7 °F 42.2 °F 30.00 in NNE 0.7 mph 2.3 mph 98 % 0.00 in
14:53 42.6 °F 42.1 °F 30.00 in NNE 0.8 mph 2.3 mph 98 % 0.00 in
14:58 42.5 °F 42.0 °F 30.00 in Calm     98 % 0.00 in
15:03 42.4 °F 41.9 °F 30.00 in Calm   1.2 mph 98 % 0.00 in
15:08 42.4 °F 41.9 °F 30.00 in NNE 0.2 mph 1.2 mph 98 % 0.00 in
15:13 42.3 °F 41.8 °F 30.00 in Calm   1.2 mph 98 % 0.00 in
15:18 42.4 °F 41.9 °F 30.00 in NNE 0.9 mph 2.3 mph 98 % 0.00 in
15:23 42.7 °F 42.2 °F 29.99 in NNE 0.2 mph 1.2 mph 98 % 0.00 in
15:28 43.1 °F 42.6 °F 29.99 in NNE 0.9 mph 2.3 mph 98 % 0.00 in
15:29 43.2 °F 42.7 °F 29.99 in NNE 2.0 mph 3.5 mph 98 % 0.00 in
15:34 43.5 °F 43.0 °F 29.99 in NNE 0.9 mph 3.5 mph 98 % 0.00 in
15:35 43.6 °F 43.1 °F 29.99 in NNE 0.3 mph 1.2 mph 98 % 0.00 in
15:36 43.6 °F 43.1 °F 29.99 in Calm     98 % 0.00 in
15:37 43.6 °F 43.1 °F 29.99 in NNE 0.6 mph 1.2 mph 98 % 0.00 in
15:42 43.6 °F 43.1 °F 29.99 in Calm     98 % 0.00 in
15:47 43.7 °F 43.2 °F 29.98 in NNE 1.2 mph 2.3 mph 98 % 0.00 in
15:52 43.8 °F 43.3 °F 29.98 in Calm   1.2 mph 98 % 0.00 in
15:54 44.0 °F 43.5 °F 29.98 in NNE 1.3 mph 2.3 mph 98 % 0.00 in
15:55 44.0 °F 43.5 °F 29.98 in NNE 0.3 mph 1.2 mph 98 % 0.00 in
15:57 44.1 °F 43.6 °F 29.98 in Calm   1.2 mph 98 % 0.00 in
16:01 44.2 °F 43.7 °F 29.99 in NNE 0.1 mph 1.2 mph 98 % 0.00 in
16:06 44.5 °F 44.0 °F 29.98 in NNE 1.3 mph 3.5 mph 98 % 0.00 in
16:11 44.6 °F 44.1 °F 29.98 in NNE 0.6 mph 2.3 mph 98 % 0.00 in
16:16 44.7 °F 44.2 °F 29.98 in NNE 0.4 mph 2.3 mph 98 % 0.00 in
16:21 44.5 °F 44.0 °F 29.98 in NNE 0.1 mph 1.2 mph 98 % 0.00 in
16:26 44.3 °F 43.8 °F 29.98 in Calm     98 % 0.00 in
16:31 44.5 °F 44.0 °F 29.98 in Calm   1.2 mph 98 % 0.00 in
16:36 44.6 °F 44.1 °F 29.98 in Calm   1.2 mph 98 % 0.00 in
16:41 44.7 °F 44.2 °F 29.98 in Calm   1.2 mph 98 % 0.00 in
16:46 44.7 °F 44.2 °F 29.97 in NNE 2.3 mph 3.5 mph 98 % 0.00 in
16:51 44.8 °F 44.3 °F 29.97 in Calm     98 % 0.00 in
16:56 44.8 °F 44.3 °F 29.97 in Calm   1.2 mph 98 % 0.00 in
17:01 44.9 °F 44.4 °F 29.97 in Calm     98 % 0.00 in
17:06 45.1 °F 44.6 °F 29.97 in Calm     98 % 0.00 in
17:11 45.3 °F 44.8 °F 29.96 in Calm     98 % 0.00 in
17:16 45.5 °F 45.0 °F 29.96 in Calm   1.2 mph 98 % 0.00 in
17:22 45.6 °F 45.1 °F 29.96 in Calm     98 % 0.00 in
17:26 45.8 °F 45.3 °F 29.96 in Calm     98 % 0.00 in
17:31 46.1 °F 45.6 °F 29.96 in Calm     98 % 0.00 in
17:37 46.3 °F 45.8 °F 29.96 in Calm   2.3 mph 98 % 0.00 in
17:42 46.6 °F 46.1 °F 29.96 in Calm     98 % 0.00 in
17:47 46.8 °F 46.3 °F 29.96 in Calm     98 % 0.00 in
17:52 47.0 °F 46.5 °F 29.97 in Calm     98 % 0.00 in
17:57 47.2 °F 46.7 °F 29.97 in Calm     98 % 0.00 in
18:02 47.2 °F 46.7 °F 29.96 in Calm     98 % 0.00 in
18:07 47.2 °F 46.7 °F 29.96 in Calm     98 % 0.00 in
18:12 47.1 °F 46.6 °F 29.97 in Calm     98 % 0.00 in
18:17 47.1 °F 46.6 °F 29.97 in Calm     98 % 0.00 in
18:22 47.0 °F 46.5 °F 29.96 in NNE 1.6 mph 3.0 mph 98 % 0.00 in
18:27 46.9 °F 46.4 °F 29.96 in Calm   1.2 mph 98 % 0.00 in
18:32 46.8 °F 46.3 °F 29.96 in Calm   1.2 mph 98 % 0.00 in
18:37 46.5 °F 45.7 °F 29.96 in NNE 0.6 mph 1.2 mph 97 % 0.00 in
18:42 46.1 °F 45.3 °F 29.96 in Calm   1.2 mph 97 % 0.00 in
18:47 45.9 °F 45.1 °F 29.96 in NNE 0.7 mph 2.3 mph 97 % 0.00 in
18:52 45.6 °F 44.8 °F 29.96 in Calm     97 % 0.00 in
18:57 45.4 °F 44.3 °F 29.97 in Calm     96 % 0.00 in
19:02 45.2 °F 44.1 °F 29.96 in Calm     96 % 0.00 in
19:07 44.9 °F 43.8 °F 29.97 in Calm     96 % 0.00 in
19:12 44.7 °F 43.6 °F 29.96 in Calm     96 % 0.00 in
19:17 44.6 °F 43.5 °F 29.97 in Calm     96 % 0.00 in
19:22 44.4 °F 43.3 °F 29.96 in Calm     96 % 0.00 in
19:27 44.2 °F 43.1 °F 29.96 in Calm     96 % 0.00 in
19:32 44.0 °F 42.7 °F 29.96 in Calm     95 % 0.00 in
19:37 44.0 °F 42.9 °F 29.96 in Calm     96 % 0.00 in
19:42 43.9 °F 42.8 °F 29.96 in Calm     96 % 0.00 in
19:47 43.8 °F 42.7 °F 29.96 in Calm     96 % 0.00 in
19:52 43.6 °F 42.6 °F 29.96 in Calm     96 % 0.00 in
19:57 43.5 °F 42.2 °F 29.96 in Calm     95 % 0.00 in
20:02 43.4 °F 42.1 °F 29.97 in Calm     95 % 0.00 in
20:07 43.3 °F 42.0 °F 29.97 in Calm     95 % 0.00 in
20:12 43.2 °F 42.1 °F 29.97 in Calm     96 % 0.00 in
20:17 43.1 °F 42.0 °F 29.97 in Calm     96 % 0.00 in
20:22 43.0 °F 41.9 °F 29.97 in Calm     96 % 0.00 in
20:27 42.9 °F 41.8 °F 29.97 in Calm     96 % 0.00 in
20:32 42.9 °F 41.8 °F 29.97 in Calm     96 % 0.00 in
20:37 42.7 °F 41.6 °F 29.97 in Calm   1.0 mph 96 % 0.00 in
20:42 42.5 °F 41.5 °F 29.98 in Calm     96 % 0.00 in
20:47 42.3 °F 41.0 °F 29.98 in Calm     95 % 0.00 in
20:52 42.1 °F 40.8 °F 29.98 in Calm     95 % 0.00 in
20:57 42.0 °F 40.7 °F 29.98 in Calm     95 % 0.00 in
21:02 41.8 °F 40.5 °F 29.98 in NNE 1.2 mph 2.3 mph 95 % 0.00 in
21:07 41.6 °F 40.3 °F 29.99 in NNE 1.5 mph 2.0 mph 95 % 0.00 in
21:13 41.4 °F 40.1 °F 29.99 in Calm     95 % 0.00 in
21:18 41.3 °F 40.0 °F 29.99 in NNE 0.1 mph 1.2 mph 95 % 0.00 in
21:23 41.1 °F 39.8 °F 29.99 in NE 1.2 mph 3.5 mph 95 % 0.00 in
21:28 40.9 °F 39.6 °F 29.99 in NE 0.5 mph 1.2 mph 95 % 0.00 in
21:33 40.6 °F 39.3 °F 29.99 in NE 1.3 mph 2.3 mph 95 % 0.00 in
21:38 40.5 °F 39.2 °F 29.99 in NE 0.2 mph 1.2 mph 95 % 0.00 in
21:43 40.4 °F 39.4 °F 29.99 in NE 0.3 mph 1.2 mph 96 % 0.00 in
21:48 40.3 °F 39.3 °F 29.99 in NE 0.1 mph 2.3 mph 96 % 0.00 in
21:53 40.3 °F 39.3 °F 29.99 in NE 1.3 mph 2.3 mph 96 % 0.00 in
21:58 40.4 °F 39.4 °F 29.99 in ENE 2.3 mph 3.5 mph 96 % 0.00 in
22:00 40.4 °F 39.4 °F 29.99 in ENE 2.7 mph 3.5 mph 96 % 0.00 in
22:05 40.5 °F 39.4 °F 29.99 in ENE 2.0 mph 3.0 mph 96 % 0.00 in
22:10 40.6 °F 39.5 °F 29.99 in ENE 2.2 mph 3.5 mph 96 % 0.00 in
22:15 40.7 °F 39.9 °F 29.99 in East 2.5 mph 4.6 mph 97 % 0.00 in
22:20 40.7 °F 39.9 °F 30.00 in East 2.2 mph 5.0 mph 97 % 0.00 in
22:25 40.7 °F 39.9 °F 29.99 in East 2.2 mph 3.5 mph 97 % 0.00 in
22:30 40.6 °F 39.8 °F 29.99 in East 1.7 mph 3.5 mph 97 % 0.00 in
22:35 40.7 °F 39.9 °F 29.99 in East 2.8 mph 4.6 mph 97 % 0.00 in
22:41 40.7 °F 39.9 °F 29.99 in East 1.6 mph 3.5 mph 97 % 0.00 in
22:46 40.8 °F 40.0 °F 29.99 in ENE 2.8 mph 3.5 mph 97 % 0.00 in
22:51 40.8 °F 40.0 °F 29.99 in ENE 2.0 mph 3.5 mph 97 % 0.00 in
22:56 40.9 °F 40.1 °F 29.99 in ENE 2.6 mph 4.6 mph 97 % 0.00 in
23:01 40.9 °F 40.1 °F 29.98 in East 3.1 mph 5.8 mph 97 % 0.00 in
23:06 41.1 °F 40.3 °F 29.99 in East 3.0 mph 5.0 mph 97 % 0.00 in
23:11 41.1 °F 40.3 °F 29.98 in East 2.9 mph 3.5 mph 97 % 0.00 in
23:16 41.3 °F 40.5 °F 29.99 in East 2.9 mph 4.6 mph 97 % 0.00 in
23:21 41.3 °F 40.5 °F 29.99 in East 3.9 mph 5.8 mph 97 % 0.00 in
23:27 41.3 °F 40.5 °F 29.99 in East 3.8 mph 5.8 mph 97 % 0.00 in
23:32 41.3 °F 40.5 °F 29.99 in East 4.7 mph 7.0 mph 97 % 0.00 in
23:37 41.2 °F 40.4 °F 29.99 in East 4.1 mph 5.8 mph 97 % 0.00 in
23:42 41.2 °F 40.4 °F 30.00 in East 3.1 mph 6.9 mph 97 % 0.00 in
23:47 41.1 °F 40.3 °F 30.00 in East 4.5 mph 6.9 mph 97 % 0.00 in
23:52 41.1 °F 40.3 °F 29.99 in ENE 5.6 mph 7.0 mph 97 % 0.00 in
23:57 41.1 °F 40.3 °F 29.99 in East 5.7 mph 6.9 mph 97 % 0.00 in
Crab Meadow Weather
Compliments of Weather Underground - 3 mb

Script developed by  Jim McMurry - jmcmurry@mwt.net Adapted for the template by  Wim van der Kuil - Leuven-Template.eu

Astronomy: The light of the Sun takes 8 minutes to reach Earth.